Location: Terra Rouge Observatory
(46.0000°N, 62.7500°W)
Time: 07:08:45
(UTC-03:00)

Amateur Radio Satellites - All Passes

Search period start: 23 October 2014 06:38
Search period end: 24 October 2014 06:38
Location: Terra Rouge Observatory, 46.0000°N, 62.7500°W

Satellite Date Start Highest point End Downlink Frequencies (MHz)
Time Altitude Azimuth
RS-15 23 Oct 06:39:00 06:49:49 54° 41° (NE) 07:01:00 29.354 - 29.394 USB, Beacon 29.352 USB
OPAL 23 Oct 06:41:18 06:44:55 19° 266° (W) 06:48:31 ?
STRAND 1 23 Oct 06:41:47 06:46:47 55° 70° (ENE) 06:51:49 ?
Hamsat 23 Oct 06:51:32 06:55:40 55° 100° (E) 06:59:47 145.90 MHz
Sapphire 23 Oct 07:32:50 07:35:59 15° 329° (NNW) 07:39:09 437.095 MHz 1200 baud AX-25 AFSK
Uosat F 23 Oct 07:37:46 07:40:13 14° 304° (NW) 07:42:41 435.120 FM
Saudisat 1A 23 Oct 07:52:09 07:55:28 21° 113° (ESE) 07:58:49 436.775 MHz
SO-67 23 Oct 07:53:34 07:56:45 33° 97° (E) 07:59:54 435.3500 MHz FM
PCSat 23 Oct 07:57:27 07:59:23 12° 336° (NNW) 08:01:19 145.825 MHz
JAS-2 23 Oct 07:57:50 08:04:58 45° 295° (WNW) 08:12:18 435.800 - 435.900 CW/SSB, 435.910 FM
AO-7 23 Oct 08:16:56 08:22:25 20° 315° (NW) 08:27:55 29.400 - 29.500 MHz
STRAND 1 23 Oct 08:22:31 08:26:19 21° 268° (W) 08:30:09 ?
Hamsat 23 Oct 08:28:38 08:31:13 16° 297° (WNW) 08:33:48 145.90 MHz
RS-15 23 Oct 08:51:38 09:02:23 57° 245° (WSW) 09:13:36 29.354 - 29.394 USB, Beacon 29.352 USB
HO-68 23 Oct 09:13:21 09:19:16 27° 93° (E) 09:25:08 435.675 MHz FM
SO-67 23 Oct 09:27:14 09:29:29 17° 294° (WNW) 09:31:44 435.3500 MHz FM
Saudisat 1A 23 Oct 09:30:26 09:34:43 51° 312° (NW) 09:39:03 436.775 MHz
MaSat-1 23 Oct 09:42:38 09:45:20 51° 58° (ENE) 09:47:47 437.345 MHz
JAS-2 23 Oct 09:46:04 09:48:13 11° 315° (NW) 09:50:23 435.800 - 435.900 CW/SSB, 435.910 FM
UKube-1 23 Oct 09:53:29 09:56:15 16° 91° (E) 09:59:00 145.840 MHz, 145.915 MHz
FUNcube-1 23 Oct 10:29:57 10:32:32 16° 90° (E) 10:35:06 145.950 - 145.970 MHz USB
Oscar 11 23 Oct 10:35:41 10:39:47 41° 98° (E) 10:43:51 145.825 FM, Beacon 2401.500 USB
HO-68 23 Oct 11:00:22 11:07:30 67° 292° (WNW) 11:14:36 435.675 MHz FM
Sapphire 23 Oct 11:06:35 11:08:18 11° 23° (NNE) 11:10:02 437.095 MHz 1200 baud AX-25 AFSK
RS-15 23 Oct 11:08:47 11:12:08 12° 267° (W) 11:15:33 29.354 - 29.394 USB, Beacon 29.352 USB
Saudisat 1A 23 Oct 11:13:17 11:15:19 13° 333° (NNW) 11:17:21 436.775 MHz
ZACube-1 23 Oct 11:19:50 11:24:03 52° 100° (E) 11:28:08 437.345 MHz
UKube-1 23 Oct 11:28:30 11:32:46 54° 289° (WNW) 11:37:01 145.840 MHz, 145.915 MHz
PCSat 23 Oct 11:28:40 11:31:42 15° 30° (NNE) 11:34:43 145.825 MHz
KITSAT 1 23 Oct 11:35:37 11:40:47 19° 101° (E) 11:45:58 435.175 FM
FUNcube-1 23 Oct 12:05:06 12:09:17 52° 288° (WNW) 12:13:22 145.950 - 145.970 MHz USB
Oscar 16 23 Oct 12:06:34 12:08:50 13° 55° (NE) 12:11:06 437.025 USB, Beacon 2401.1428
Oscar 11 23 Oct 12:12:26 12:15:43 22° 296° (WNW) 12:19:00 145.825 FM, Beacon 2401.500 USB
Sapphire 23 Oct 12:48:22 12:53:24 37° 47° (NE) 12:58:24 437.095 MHz 1200 baud AX-25 AFSK
HO-68 23 Oct 12:49:51 12:53:55 16° 313° (NW) 12:57:59 435.675 MHz FM
ZACube-1 23 Oct 12:57:13 13:00:03 17° 298° (WNW) 13:02:50 437.345 MHz
Oscar 19 23 Oct 12:57:30 13:02:02 33° 65° (ENE) 13:06:35 437.125 CW, 437.150 USB
JAS-1B 23 Oct 13:02:20 13:07:30 33° 64° (ENE) 13:12:30 435.800 - 435.900 CW/SSB
SO-50 23 Oct 13:05:18 13:08:39 21° 112° (ESE) 13:12:05 436.795 FM
PCSat 23 Oct 13:11:01 13:16:22 55° 52° (NE) 13:21:40 145.825 MHz
AO-27 23 Oct 13:11:53 13:15:41 21° 60° (ENE) 13:19:30 436.795 MHz FM
KITSAT 1 23 Oct 13:26:54 13:34:59 82° 121° (ESE) 13:43:06 435.175 FM
ISS 23 Oct 13:27:20 13:29:53 21° 137° (SE) 13:32:26 145.800 FM
Oscar 16 23 Oct 13:42:12 13:47:22 80° 74° (ENE) 13:52:32 437.025 USB, Beacon 2401.1428
AO-7 23 Oct 13:45:12 13:49:03 14° 38° (NE) 13:52:54 29.400 - 29.500 MHz
AO-Echo 23 Oct 13:51:03 13:55:45 49° 70° (ENE) 14:00:38 ?
Uribyol 2 23 Oct 13:58:53 14:03:55 52° 69° (ENE) 14:09:00 436.500 FM
ITAMSAT 1 23 Oct 14:04:27 14:09:31 54° 70° (ENE) 14:14:37 435.822 SSB
Gurwin Techsat 1B 23 Oct 14:14:55 14:19:45 37° 66° (ENE) 14:24:36 435.225 FM
TMSAT-1 23 Oct 14:27:18 14:32:04 36° 66° (ENE) 14:36:53 436.925 FM
Sapphire 23 Oct 14:31:49 14:36:54 41° 247° (WSW) 14:41:57 437.095 MHz 1200 baud AX-25 AFSK
Oscar 19 23 Oct 14:36:35 14:41:19 36° 263° (W) 14:46:04 437.125 CW, 437.150 USB
Saudisat 1A 23 Oct 14:37:34 14:38:46 11° 23° (NNE) 14:39:58 436.775 MHz
UOSAT-12 23 Oct 14:38:22 14:41:25 18° 110° (ESE) 14:44:30 437.025 FM, 437.400 FM
SO-50 23 Oct 14:44:22 14:48:49 55° 311° (NW) 14:53:25 436.795 FM
AO-27 23 Oct 14:49:35 14:54:44 62° 258° (WSW) 14:59:57 436.795 MHz FM
JAS-1B 23 Oct 14:52:40 14:58:11 38° 262° (W) 15:03:28 435.800 - 435.900 CW/SSB
PCSat 23 Oct 14:55:03 14:59:26 26° 251° (WSW) 15:03:49 145.825 MHz
ISS 23 Oct 15:02:58 15:06:18 71° 335° (NNW) 15:09:38 145.800 FM
Oscar 10/S400 23 Oct 15:19:43 15:36:31 39° 156° (SSE) 16:07:36 145.825 - 145.975 CW/USB, Beacon 145.810 USB
KITSAT 1 23 Oct 15:24:09 15:31:17 33° 325° (NW) 15:38:27 435.175 FM
Oscar 16 23 Oct 15:24:37 15:27:20 14° 272° (W) 15:30:04 437.025 USB, Beacon 2401.1428
AO-Echo 23 Oct 15:31:03 15:34:49 22° 268° (W) 15:38:42 ?
AO-7 23 Oct 15:32:05 15:39:55 50° 61° (ENE) 15:47:47 29.400 - 29.500 MHz
Uosat F 23 Oct 15:35:26 15:39:27 25° 62° (ENE) 15:43:29 435.120 FM
Uribyol 2 23 Oct 15:39:36 15:43:41 23° 267° (W) 15:47:48 436.500 FM
ITAMSAT 1 23 Oct 15:45:22 15:49:20 22° 268° (W) 15:53:20 435.822 SSB
Gurwin Techsat 1B 23 Oct 15:54:59 15:59:44 33° 264° (W) 16:04:32 435.225 FM
TMSAT-1 23 Oct 16:07:12 16:11:59 34° 264° (W) 16:16:49 436.925 FM
Saudisat 1A 23 Oct 16:15:23 16:19:34 39° 45° (NE) 16:23:43 436.775 MHz
UOSAT-12 23 Oct 16:16:24 16:21:03 68° 309° (NW) 16:25:47 437.025 FM, 437.400 FM
SO-50 23 Oct 16:27:54 16:30:26 14° 333° (NNW) 16:33:00 436.795 FM
JAS-2 23 Oct 16:28:50 16:33:41 25° 57° (ENE) 16:38:59 435.800 - 435.900 CW/SSB, 435.910 FM
ISS 23 Oct 16:40:20 16:43:22 30° 354° (N) 16:46:23 145.800 FM
OPAL 23 Oct 17:10:26 17:12:07 12° 90° (E) 17:13:48 ?
Uosat F 23 Oct 17:13:07 17:17:57 48° 260° (W) 17:22:51 435.120 FM
KITSAT 1 23 Oct 17:24:22 17:29:37 18° 354° (N) 17:34:52 435.175 FM
AO-7 23 Oct 17:25:04 17:32:49 43° 261° (W) 17:40:37 29.400 - 29.500 MHz
Hamsat 23 Oct 17:47:03 17:51:08 53° 73° (ENE) 17:55:14 145.90 MHz
Saudisat 1A 23 Oct 17:55:11 17:59:01 29° 244° (WSW) 18:02:51 436.775 MHz
UOSAT-12 23 Oct 17:59:05 18:02:05 17° 330° (NNW) 18:05:06 437.025 FM, 437.400 FM
JAS-2 23 Oct 18:12:12 18:18:05 67° 259° (W) 18:24:49 435.800 - 435.900 CW/SSB, 435.910 FM
ISS 23 Oct 18:17:25 18:20:35 39° 15° (NNE) 18:23:45 145.800 FM
SO-67 23 Oct 18:29:13 18:31:36 18° 66° (ENE) 18:33:59 435.3500 MHz FM
OPAL 23 Oct 18:46:43 18:51:43 90° 114° (ESE) 18:56:40 ?
STRAND 1 23 Oct 18:51:14 18:54:14 15° 89° (E) 18:57:13 ?
KITSAT 1 23 Oct 19:22:07 19:28:26 24° 24° (NNE) 19:34:43 435.175 FM
Hamsat 23 Oct 19:24:56 19:27:25 15° 270° (W) 19:29:54 145.90 MHz
HO-68 23 Oct 19:45:05 19:50:56 28° 56° (NE) 19:56:48 435.675 MHz FM
SO-50 23 Oct 19:53:50 19:55:59 13° 24° (NNE) 19:58:09 436.795 FM
ISS 23 Oct 19:54:07 19:57:24 55° 214° (SSW) 20:00:40 145.800 FM
SO-67 23 Oct 20:01:18 20:04:23 31° 264° (W) 20:07:29 435.3500 MHz FM
JAS-2 23 Oct 20:03:58 20:04:44 10° 281° (W) 20:05:32 435.800 - 435.900 CW/SSB, 435.910 FM
AO-40 23 Oct 20:05:47 00:14:16 30° 139° (SE) 01:45:02 Beacon 2401.320
OPAL 23 Oct 20:27:16 20:29:54 15° 306° (NW) 20:32:31 ?
STRAND 1 23 Oct 20:28:49 20:34:00 75° 287° (WNW) 20:39:07 ?
UKube-1 23 Oct 20:51:17 20:54:31 21° 63° (ENE) 20:57:46 145.840 MHz, 145.915 MHz
RS-15 23 Oct 21:10:41 21:17:34 19° 98° (E) 21:24:22 29.354 - 29.394 USB, Beacon 29.352 USB
KITSAT 1 23 Oct 21:17:34 21:25:36 63° 50° (NE) 21:33:35 435.175 FM
UOSAT-12 23 Oct 21:25:20 21:26:45 11° 20° (NNE) 21:28:10 437.025 FM, 437.400 FM
FUNcube-1 23 Oct 21:28:25 21:31:44 20° 63° (ENE) 21:35:02 145.950 - 145.970 MHz USB
HO-68 23 Oct 21:30:57 21:38:05 70° 256° (WSW) 21:45:16 435.675 MHz FM
Oscar 11 23 Oct 21:32:58 21:37:04 44° 71° (ENE) 21:41:12 145.825 FM, Beacon 2401.500 USB
SO-50 23 Oct 21:33:11 21:37:47 43° 46° (NE) 21:42:26 436.795 FM
STRAND 1 23 Oct 22:10:19 22:12:18 12° 306° (NW) 22:14:17 ?
ZACube-1 23 Oct 22:18:09 22:22:39 59° 73° (ENE) 22:27:07 437.345 MHz
UKube-1 23 Oct 22:26:15 22:30:25 45° 261° (W) 22:34:38 145.840 MHz, 145.915 MHz
FUNcube-1 23 Oct 23:03:19 23:07:47 50° 261° (W) 23:12:13 145.950 - 145.970 MHz USB
UOSAT-12 23 Oct 23:03:58 23:08:20 35° 43° (NE) 23:12:37 437.025 FM, 437.400 FM
Oscar 11 23 Oct 23:10:20 23:13:28 19° 268° (W) 23:16:37 145.825 FM, Beacon 2401.500 USB
KITSAT 1 23 Oct 23:13:29 23:20:36 36° 251° (WSW) 23:27:41 435.175 FM
SO-50 23 Oct 23:13:59 23:18:15 31° 244° (WSW) 23:22:32 436.795 FM
RS-15 23 Oct 23:17:00 23:27:56 76° 121° (ESE) 23:38:51 29.354 - 29.394 USB, Beacon 29.352 USB
MaSat-1 23 Oct 23:24:11 23:25:27 11° 105° (ESE) 23:26:42 437.345 MHz
HO-68 23 Oct 23:24:13 23:27:05 13° 275° (W) 23:29:58 435.675 MHz FM
ZACube-1 23 Oct 23:56:31 23:59:24 16° 270° (W) 00:02:16 437.345 MHz
UOSAT-12 24 Oct 00:44:09 00:48:32 39° 242° (WSW) 00:52:50 437.025 FM, 437.400 FM
MaSat-1 24 Oct 00:56:37 01:00:44 74° 299° (WNW) 01:04:26 437.345 MHz
RS-15 24 Oct 01:31:03 01:41:16 43° 328° (NNW) 01:51:37 29.354 - 29.394 USB, Beacon 29.352 USB
Oscar 16 24 Oct 01:52:05 01:56:08 23° 93° (E) 02:00:09 437.025 USB, Beacon 2401.1428
AO-Echo 24 Oct 01:57:01 01:59:52 15° 88° (E) 02:02:43 ?
Uribyol 2 24 Oct 02:10:34 02:13:28 15° 89° (E) 02:16:20 436.500 FM
ITAMSAT 1 24 Oct 02:16:08 02:19:15 16° 89° (E) 02:22:22 435.822 SSB
Gurwin Techsat 1B 24 Oct 02:30:45 02:32:25 11° 86° (E) 02:34:05 435.225 FM
JAS-1B 24 Oct 02:31:14 02:37:32 47° 100° (E) 02:44:58 435.800 - 435.900 CW/SSB
TMSAT-1 24 Oct 02:43:03 02:44:19 11° 85° (E) 02:45:35 436.925 FM
Oscar 19 24 Oct 02:45:03 02:50:10 66° 102° (ESE) 02:55:14 437.125 CW, 437.150 USB
AO-27 24 Oct 03:00:12 03:05:07 39° 98° (E) 03:09:59 436.795 MHz FM
Oscar 16 24 Oct 03:30:49 03:35:45 49° 291° (WNW) 03:40:40 437.025 USB, Beacon 2401.1428
AO-Echo 24 Oct 03:33:56 03:39:15 83° 286° (WNW) 03:44:35 ?
Sapphire 24 Oct 03:34:34 03:38:04 18° 105° (ESE) 03:41:35 437.095 MHz 1200 baud AX-25 AFSK
AO-7 24 Oct 03:34:51 03:36:28 11° 83° (E) 03:38:06 29.400 - 29.500 MHz
RS-15 24 Oct 03:48:15 03:57:23 29° 2° (N) 04:06:43 29.354 - 29.394 USB, Beacon 29.352 USB
Uribyol 2 24 Oct 03:48:19 03:53:33 78° 287° (WNW) 03:58:44 436.500 FM
ITAMSAT 1 24 Oct 03:54:05 03:59:19 74° 287° (WNW) 04:04:31 435.822 SSB
PCSat 24 Oct 03:55:53 04:00:28 29° 110° (ESE) 04:05:05 145.825 MHz
Gurwin Techsat 1B 24 Oct 04:07:51 04:13:13 83° 104° (ESE) 04:18:32 435.225 FM
TMSAT-1 24 Oct 04:19:45 04:25:06 79° 104° (ESE) 04:30:24 436.925 FM
JAS-1B 24 Oct 04:22:20 04:28:06 37° 295° (WNW) 04:34:47 435.800 - 435.900 CW/SSB
Oscar 19 24 Oct 04:25:28 04:29:00 19° 300° (WNW) 04:32:31 437.125 CW, 437.150 USB
OPAL 24 Oct 04:26:07 04:30:37 31° 63° (ENE) 04:35:04 ?
AO-27 24 Oct 04:39:57 04:44:31 31° 296° (WNW) 04:49:03 436.795 MHz FM
AO-Echo 24 Oct 05:14:32 05:17:13 14° 304° (NW) 05:19:55 ?
Sapphire 24 Oct 05:15:27 05:20:51 76° 304° (NW) 05:26:19 437.095 MHz 1200 baud AX-25 AFSK
Uosat F 24 Oct 05:18:09 05:22:58 43° 99° (E) 05:27:45 435.120 FM
JAS-2 24 Oct 05:18:51 05:24:30 21° 87° (E) 05:30:10 435.800 - 435.900 CW/SSB, 435.910 FM
AO-7 24 Oct 05:22:52 05:31:04 58° 103° (ESE) 05:39:15 29.400 - 29.500 MHz
Uribyol 2 24 Oct 05:29:53 05:32:10 13° 306° (NW) 05:34:26 436.500 FM
ITAMSAT 1 24 Oct 05:35:51 05:37:55 12° 306° (NW) 05:39:59 435.822 SSB
PCSat 24 Oct 05:38:24 05:43:39 49° 309° (NW) 05:48:56 145.825 MHz
Gurwin Techsat 1B 24 Oct 05:49:16 05:52:31 17° 303° (WNW) 05:55:45 435.225 FM
TMSAT-1 24 Oct 06:01:02 06:04:23 17° 302° (WNW) 06:07:43 436.925 FM
RS-15 24 Oct 06:02:51 06:13:23 46° 35° (NE) 06:24:14 29.354 - 29.394 USB, Beacon 29.352 USB
OPAL 24 Oct 06:04:36 06:09:23 39° 260° (W) 06:14:09 ?
STRAND 1 24 Oct 06:09:04 06:13:28 30° 64° (ENE) 06:17:53 ?
